View from above orbital plane
|
View from above satellite
|
Ground track
|
The orbit data is extracted from the following two-line orbital elements,
1 22285U 92093B 13168.81974090 .00000345 00000-0 20347-3 0 586
2 22285 071.0222 035.5121 0004936 216.3881 143.6906 14.14850858 55961
| Epoch (UTC): | 17 June 2013 19:40:25 |
| Eccentricity: | 0.0004936 |
| inclination: | 71.0222° |
| perigee height: | 839 km |
| apogee height: | 846 km |
| right ascension of ascending node: | 35.5121° |
| argument of perigee: | 216.3881° |
| revolutions per day: | 14.14850858 |
| mean anomaly at epoch: | 143.6906° |
| orbit number at epoch: | 5596 |
The dashed part of the orbit path shows where the satellite is in the earth's shadow,
|
|